Location: Saddleback Butte
(34.6776°N, 117.8050°W)
Time: 01:42:51
(UTC-08:00)

Iridium 35 - Visible Passes

Search period start: 23 November 2014 00:00
Search period end: 03 December 2014 00:00
Orbit: 776 x 779 km, 86.4° (Epoch: 22 November)

Date Brightness Start Highest point End Pass type
(mag) Time Alt. Az. Time Alt. Az. Time Alt. Az.
23 Nov 6.9 06:05:46 10° NNE 06:10:28 33° E 06:15:08 10° SSE visible
23 Nov 6.7 18:58:19 10° S 18:59:59 21° S 18:59:59 21° S visible
24 Nov 7.8 05:33:16 10° NE 05:36:43 18° ENE 05:40:10 10° ESE visible
24 Nov 6.2 18:25:16 10° SSE 18:27:46 26° SE 18:27:46 26° SE visible
24 Nov 7.7 20:07:21 10° WSW 20:08:20 13° WSW 20:08:20 13° WSW visible
25 Nov 6.3 17:52:57 10° SE 17:55:37 20° E 17:55:37 20° E visible
25 Nov 6.6 19:32:28 10° SSW 19:36:11 32° WSW 19:36:11 32° WSW visible
26 Nov 6.1 06:05:34 10° N 06:10:38 50° E 06:15:39 10° SSE visible
26 Nov 6.8 17:22:35 10° E 17:23:32 11° ENE 17:23:32 11° ENE visible
26 Nov 5.2 18:58:26 10° S 19:03:36 69° W 19:04:06 64° NW visible
27 Nov 7.3 05:32:38 10° NNE 05:36:58 26° E 05:41:16 10° SE visible
27 Nov 4.9 18:25:00 10° SSE 18:30:07 61° E 18:32:07 36° NNE visible
27 Nov 7.9 20:09:07 10° W 20:11:13 12° WNW 20:12:41 11° WNW visible
28 Nov 7.9 05:00:38 10° NE 05:03:11 14° ENE 05:05:42 10° ESE visible
28 Nov 5.7 17:52:13 10° SE 17:56:44 31° E 18:00:12 15° NNE visible
28 Nov 7.1 19:33:16 10° SW 19:37:25 24° W 19:40:48 13° NNW visible
29 Nov 5.3 06:05:32 10° N 06:10:45 76° E 06:15:56 10° S visible
29 Nov 6.4 17:20:20 10° ESE 17:23:29 16° E 17:26:38 10° NE visible
29 Nov 6.0 18:58:46 10° SSW 19:03:44 46° W 19:08:44 10° NNW visible
30 Nov 6.6 05:32:19 10° NNE 05:37:10 38° E 05:41:59 10° SSE visible
30 Nov 4.9 18:24:58 10° S 18:30:10 89° W 18:35:24 10° N visible
01 Dec 7.6 04:59:38 10° NNE 05:03:27 20° E 05:07:15 10° SE visible
01 Dec 5.2 17:51:47 10° SSE 17:56:44 46° E 18:01:41 10° NNE visible
01 Dec 7.7 19:34:29 10° WSW 19:37:40 16° WNW 19:40:52 10° NW visible
02 Dec 8.3 04:29:23 10° ENE 04:29:36 10° ENE 04:29:49 10° ENE visible
02 Dec 5.0 06:05:38 10° N 06:10:50 73° W 06:16:00 10° S visible
02 Dec 6.0 17:19:17 10° SE 17:23:24 24° E 17:27:31 10° NNE visible
02 Dec 6.8 18:59:21 10° SW 19:03:54 31° W 19:08:29 10° NNW visible
